Regional Weather Roundup
Issued by NWS Newport/Morehead, NC

Current Version | Previous Version | Graphics & Text | Print | Product List | Glossary Off
Versions: 1 2 3 4 5 6 7 8 9 10 11 12 13 14 15 16 17 18 19 20 21 22 23 24 25 26 27 28 29 30 31 32 33 34 35 36 37 38 39 40 41 42 43 44 45 46 47 48 49 50

298
ASUS42 KMHX 281513
RWRMHX
WEATHER ROUNDUP FOR EASTERN NORTH CAROLINA
NATIONAL WEATHER SERVICE NEWPORT/MOREHEAD CITY NC
1100 AM EDT TUE MAR 28 2017

NOTE: "FAIR" INDICATES FEW OR NO CLOUDS BELOW 12,000 FEET
WITH NO SIGNIFICANT WEATHER AND/OR OBSTRUCTIONS TO VISIBILITY

NCZ015>017-031-032-045>047-102-103-281600-
NORTH COAST

CITY           SKY/WX    TMP DP  RH WIND       PRES   REMARKS
EDENTON        CLOUDY    71  60  67 SW8       29.97S
ELIZABETH CITY CLOUDY    70  60  70 SW12      29.95F
KITTY HAWK     NOT AVBL
MANTEO         CLOUDY    71  59  66 W13G18    29.98S

$$

NCZ045>047-081-094-103-104-281600-
CENTRAL COAST

CITY           SKY/WX    TMP DP  RH WIND       PRES   REMARKS
FRISCO         CLOUDY    72  60  66 SW12G17   30.00S HAZE

$$

NCZ095-097-098-100-101-281600-
SOUTHERN COAST

CITY           SKY/WX    TMP DP  RH WIND       PRES   REMARKS
BEAUFORT       PTSUNNY   73  63  70 SW13      30.01R
CEDAR ISLAND   NOT AVBL
JACKSONVILLE   CLOUDY    69  60  73 W10       30.01R
PINEY ISLAND   PTSUNNY  N/A N/A N/A SW14      29.99S
WILMINGTON     CLOUDY    70  60  70 NW15G22   30.02R


$$

NCZ011>013-027>030-043-044-078>080-089-090>093-098-281600-
COASTAL PLAIN

CITY           SKY/WX    TMP DP  RH WIND       PRES   REMARKS
AHOSKIE        LGT RAIN  64  59  86 CALM      29.96R
CLINTON        CLOUDY    63  63 100 S7        29.98S
ELIZABETHTOWN  PTSUNNY   66  64  93 S8        29.98F
GOLDSBORO      CLOUDY    64  64 100 S8        29.95F
GREENVILLE     RAIN      64  61  88 SW12      29.99S
HAVELOCK       PTSUNNY   73  59  61 W20G26    30.01R
KENANSVILLE    CLOUDY    63  61  94 SW6       29.99F
KINSTON        CLOUDY    64  61  88 SW6       29.99S
NEW BERN       CLOUDY    70  59  68 W15G26    30.01R
RICHLANDS      LGT RAIN  64  61  90 SW5       30.02R
ROCKY MOUNT    LGT RAIN  63  62  97 S7        29.95S
WASHINGTON     LGT RAIN  68  60  74 SW13G18   29.98R
WHITEVILLE     MOSUNNY   68  61  78 S8        29.98F

$$

AMZ130-135-150-152-154-156-158-170-250-252-270-ANZ085-086-088-633-658-670-281600-
MARINE OBSERVATIONS

STATION/POSITION TIME  TEMP    WIND        PRES    WAVE   SWELL
                       AIR SEA DIR/SP/G            HT/PER HT/PER
                 (UTC) (F)     (DEG/KT/KT) (MB)    (FT/S) (FT/S)
CHESAPEAKE LIGHT NOT AVBL
64 E VA BEACH    1450   56 50  210/ 14/ 16 1014.3    4/ 9   3/ 9
DUCK             1448   67 47  210/ 12/ 15 1013.9
2 E DUCK         1500      50                N/A     3/10   2/11
OREGON INLET     1442   61 59  200/ 11/ 13 1015.2
13E OREGON INLT  1448      52                N/A     4/ 9   3/ 9
HATTERAS CG      1442   71 61  240/ 10/ 13 1015.7
DIAMOND BUOY     1450   72 74  240/ 17/ 19 1015.7    5/10   3/10
CAPE LOOKOUT     1500   69     250/ 11/ 14 1016.1
BEAUFORT LAB     1448   69 60  220/  5/  9 1015.3
30 SE NEW RVR IN 1408   66     260/ 10/ 14 1016.0
30 SE NEW RVR IN 1443      64                N/A     5/11   2/11
27 SE WRIGHTSVLE 1408   68 66  230/ 16/ 21 1015.5
5 SE WRIGHTSVLE  1408   63 60  200/ 12/ 16 1015.6
225 S CAPE HAT   1450   69 73  310/  2/  4 1018.6    6/10   7/10
41 SE CHARLESTON 1450   71 72  230/ 16/ 17 1016.4    5/11   5/11

$$




USA.gov is the U.S. government's official web portal to all federal, state and local government web resources and services.